FW8459 Weather Reports


time (UTC)temp
F
wind
direction
speed
knots
gust
knots
rain 1hr
in
rain 24hr
in
rain mn
in
humidity
%
barometer
mb
20260905100001 54 278 0.0 0.0 0.00 0.02 0.02 97 1012.7
20260905095456 55 263 0.0 0.0 0.00 0.02 0.02 97 1012.4
20260905094951 55 291 0.0 0.0 0.00 0.02 0.02 97 1012.4
20260905094446 55 277 0.0 0.0 0.00 0.02 0.02 97 1012.3
20260905093945 55 225 0.9 0.9 0.00 0.02 0.02 96 1012.5
20260905093440 55 241 0.9 0.9 0.00 0.02 0.02 96 1012.3
20260905092936 56 228 0.0 0.9 0.00 0.02 0.02 96 1012.5
20260905092431 56 265 0.0 0.0 0.00 0.02 0.02 95 1012.3
20260905091926 56 300 0.0 0.0 0.00 0.02 0.02 94 1012.4
20260905091421 57 269 0.0 0.0 0.00 0.02 0.02 94 1012.1
20260905090920 57 300 0.0 0.0 0.00 0.02 0.02 93 1012.3
20260905090416 57 328 0.9 0.9 0.00 0.02 0.02 93 1012.3
20260905085915 57 340 2.6 2.6 0.00 0.02 0.02 94 1012.4
20260905085414 57 343 0.9 1.7 0.00 0.02 0.02 94 1012.0
20260905084911 57 353 0.9 1.7 0.00 0.02 0.02 94 1012.0
20260905084409 57 5 1.7 2.6 0.00 0.02 0.02 94 1011.8
20260905083904 57 14 1.7 1.7 0.00 0.02 0.02 95 1012.0
20260905083400 57 10 0.9 0.9 0.00 0.02 0.02 96 1011.8
20260905082856 57 325 0.9 1.7 0.00 0.02 0.02 97 1012.0
20260905082352 57 348 0.9 0.9 0.00 0.02 0.02 97 1012.1
20260905081847 57 347 1.7 1.7 0.00 0.02 0.02 98 1012.0
20260905081342 57 329 0.9 1.7 0.00 0.02 0.02 98 1012.0
20260905080840 56 43 0.9 1.7 0.00 0.02 0.02 99 1011.9
20260905080341 56 350 0.9 1.7 0.00 0.02 0.02 99 1011.8
20260905075840 56 30 2.6 4.3 0.00 0.02 0.02 99 1012.3
20260905075339 56 11 2.6 4.3 0.00 0.02 0.02 99 1011.9
20260905074839 56 70 1.7 2.6 0.00 0.02 0.02 99 1012.0
20260905074335 56 58 1.7 1.7 0.00 0.02 0.02 99 1012.0
20260905073830 56 298 0.0 0.9 0.00 0.02 0.02 99 1011.8
20260905073326 57 44 2.6 4.3 0.00 0.02 0.02 99 1011.8
20260905072826 57 314 1.7 2.6 0.00 0.02 0.02 99 1011.7
20260905072320 57 354 3.5 5.2 0.00 0.02 0.02 99 1011.8
20260905071812 57 38 2.6 4.3 0.00 0.02 0.02 99 1012.4
20260905071308 57 301 0.0 0.0 0.00 0.02 0.02 99 1013.1
20260905070802 57 333 0.9 1.7 0.00 0.02 0.02 99 1013.2
20260905070259 57 27 2.6 4.3 0.00 0.02 0.02 99 1013.3
20260905065757 57 58 2.6 2.6 0.00 0.02 0.02 99 1012.9
20260905065256 57 1 2.6 2.6 0.00 0.02 0.02 99 1013.2
20260905064752 57 1 0.9 1.7 0.00 0.02 0.02 99 1013.4
20260905064247 57 301 1.7 2.6 0.00 0.02 0.02 99 1013.5
20260905063745 57 43 0.9 1.7 0.07 0.02 0.02 99 1013.7
20260905063242 57 1 0.9 1.7 0.07 0.02 0.02 99 1014.1
20260905062738 57 314 0.0 0.0 0.00 0.01 0.01 99 1014.0
20260905062238 57 305 0.0 0.0 0.00 0.01 0.01 99 1014.2
20260905061737 57 227 0.9 0.9 0.00 0.01 0.01 99 1014.1
20260905061232 57 263 0.9 0.9 0.00 0.01 0.01 99 1013.9
20260905060726 57 200 1.7 2.6 0.00 0.01 0.01 98 1014.5
20260905060223 57 178 2.6 2.6 0.00 0.01 0.01 98 1014.6
20260905055721 58 232 0.9 0.9 0.00 0.01 0.01 98 1014.2
20260905055217 58 167 1.7 1.7 0.00 0.01 0.01 98 1014.1
20260905054712 58 195 1.7 4.3 0.00 0.01 0.01 99 1014.0
20260905050217 72 204 5.2 6.1 0.05 0.02 0.02 68 1013.6
20260905045716 72 204 5.2 6.1 0.05 0.02 0.02 68 1013.6
20260905045211 72 204 5.2 6.1 0.05 0.02 0.02 68 1013.6
20260905044706 74 243 1.7 2.6 0.00 0.01 0.01 52 1011.4
20260905044201 74 310 1.7 2.6 0.00 0.01 0.01 51 1011.1
20260905043700 76 233 1.7 1.7 0.00 0.01 0.01 49 1011.6
20260905043155 76 142 2.6 4.3 0.00 0.01 0.01 49 1011.5
20260905042654 76 256 2.6 5.2 0.00 0.01 0.01 49 1011.5
20260905042149 74 122 1.7 4.3 0.00 0.01 0.01 50 1011.6
20260905041644 74 182 2.6 2.6 0.00 0.01 0.01 51 1011.7
20260905041140 74 137 2.6 4.3 0.00 0.01 0.01 50 1011.9
20260905040635 74 80 1.7 2.6 0.00 0.01 0.01 50 1012.0
20260905040133 75 190 0.9 0.9 0.00 0.01 0.01 49 1012.1
20260905035629 75 262 2.6 2.6 0.00 0.01 0.01 50 1012.3
20260905035125 74 81 1.7 1.7 0.00 0.01 0.01 51 1012.1
20260905034620 74 169 3.5 5.2 0.00 0.01 0.01 50 1012.3
20260905034119 75 158 2.6 2.6 0.00 0.01 0.01 49 1012.6
20260905033614 75 195 4.3 7.8 0.00 0.01 0.01 47 1012.1
20260905033110 77 168 7.0 12.2 0.00 0.01 0.01 45 1012.1
20260905032610 79 145 3.5 5.2 0.00 0.01 0.01 43 1012.0
20260905032110 79 220 1.7 1.7 0.00 0.01 0.01 44 1011.7
20260905031606 80 192 3.5 5.2 0.00 0.01 0.01 43 1011.7
20260905031106 80 41 1.7 2.6 0.00 0.01 0.01 42 1011.8
20260905030601 79 179 2.6 2.6 0.00 0.01 0.01 43 1011.9
20260905030056 78 34 3.5 7.8 0.00 0.01 0.01 43 1012.1
20260905025551 78 155 2.6 4.3 0.00 0.01 0.01 45 1012.1
20260905025047 78 347 0.9 1.7 0.00 0.01 0.01 45 1012.5
20260905024542 78 318 1.7 2.6 0.00 0.01 0.01 44 1012.7
20260905024038 78 192 2.6 6.1 0.00 0.01 0.01 44 1012.9
20260905023532 78 27 2.6 4.3 0.00 0.01 0.01 45 1013.0
20260905023027 78 113 1.7 2.6 0.00 0.01 0.01 45 1013.4
20260905022526 78 115 2.6 4.3 0.00 0.01 0.01 44 1013.5
20260905022022 77 266 0.9 0.9 0.00 0.01 0.01 46 1013.6
20260905021521 76 196 3.5 6.1 0.00 0.01 0.01 47 1013.6
20260905021017 76 60 2.6 2.6 0.00 0.01 0.01 47 1014.3
20260905020516 75 295 2.6 5.2 0.00 0.01 0.01 47 1014.3
20260905020012 75 160 2.6 4.3 0.00 0.01 0.01 48 1014.3
20260905015509 75 280 2.6 5.2 0.00 0.01 0.01 47 1014.6
20260905015009 76 202 2.6 4.3 0.00 0.01 0.01 46 1014.6
20260905014504 78 99 4.3 7.0 0.00 0.01 0.01 45 1014.8
20260905014000 77 38 2.6 6.1 0.00 0.01 0.01 46 1014.9
20260905013456 76 241 2.6 4.3 0.00 0.01 0.01 47 1014.9
20260905012951 76 232 2.6 4.3 0.00 0.01 0.01 47 1015.1
20260905012446 76 72 1.7 2.6 0.00 0.01 0.01 48 1015.0
20260905011943 75 79 0.9 1.7 0.00 0.01 0.01 47 1015.2
20260905011438 75 297 5.2 7.8 0.00 0.01 0.01 48 1015.3
20260905010934 75 167 1.7 1.7 0.00 0.01 0.01 48 1015.1
20260905010429 74 206 2.6 4.3 0.00 0.01 0.01 48 1015.5
20260905005924 74 319 4.3 6.1 0.00 0.01 0.01 49 1015.6
20260905005421 74 214 3.5 6.1 0.00 0.01 0.01 50 1015.7
20260905004920 74 56 0.9 0.9 0.00 0.01 0.01 51 1016.0
20260905004415 74 198 2.6 4.3 0.00 0.01 0.01 50 1016.0
20260905003910 73 142 0.9 1.7 0.00 0.01 0.01 52 1016.1
20260905003406 73 327 1.7 2.6 0.00 0.01 0.01 51 1016.1
20260905002902 72 46 2.6 4.3 0.00 0.01 0.01 54 1016.3
20260905002402 72 187 0.9 0.9 0.00 0.01 0.01 57 1016.2
20260905001856 71 346 0.0 0.9 0.00 0.01 0.01 61 1016.5
20260905001356 70 39 1.7 2.6 0.00 0.01 0.01 63 1016.4
20260905000851 69 343 0.0 0.0 0.00 0.01 0.01 65 1016.6
20260905000348 68 329 1.7 1.7 0.00 0.01 0.01 65 1016.6
20260904235843 67 23 0.0 0.9 0.00 0.01 0.01 68 1016.6
20260904235338 67 68 0.9 1.7 0.00 0.01 0.01 69 1016.7
20260904234832 66 32 0.9 1.7 0.00 0.01 0.01 70 1017.0
20260904234333 65 9 0.9 0.9 0.00 0.01 0.01 69 1017.1
20260904233829 64 330 0.9 0.9 0.00 0.01 0.01 70 1017.2
20260904233324 64 32 1.7 2.6 0.00 0.01 0.01 67 1017.2
20260904232820 63 351 0.0 0.9 0.00 0.01 0.01 68 1017.3
20260904232317 63 50 0.9 0.9 0.00 0.01 0.01 70 1017.3
20260904231813 64 324 0.0 0.0 0.00 0.01 0.01 69 1017.6
20260904231307 64 20 0.9 0.9 0.00 0.01 0.01 68 1017.5
20260904230803 63 330 0.0 0.9 0.00 0.01 0.01 70 1017.6
20260904230301 62 1 0.9 1.7 0.00 0.01 0.01 72 1017.8
20260904225756 60 26 0.0 0.9 0.00 0.01 0.01 75 1018.1
20260904225249 60 354 0.9 0.9 0.00 0.01 0.01 75 1017.8
20260904224749 59 14 0.9 0.9 0.00 0.01 0.01 78 1018.1
20260904224244 58 145 0.9 1.7 0.00 0.01 0.01 80 1018.1
20260904223743 57 358 1.7 1.7 0.00 0.01 0.01 78 1018.2
20260904223239 56 251 0.9 0.9 0.00 0.01 0.01 81 1018.6
20260904222735 57 206 0.9 0.9 0.00 0.01 0.01 79 1018.7
20260904222230 56 300 0.0 0.9 0.00 0.01 0.01 82 1018.6
20260904221729 54 44 0.0 0.9 0.00 0.01 0.01 84 1018.7
20260904221224 55 295 0.0 0.9 0.00 0.01 0.01 84 1018.7
20260904220719 54 291 0.9 0.9 0.00 0.01 0.01 85 1018.9
20260904220214 53 4 0.0 0.9 0.00 0.01 0.01 87 1018.7
20260904215714 52 314 0.0 0.0 0.00 0.01 0.01 91 1019.1
20260904215210 51 3 0.0 0.0 0.00 0.01 0.01 94 1018.9
20260904214704 50 322 0.0 0.9 0.00 0.01 0.01 97 1019.0
20260904214200 48 305 0.0 0.0 0.00 0.01 0.01 99 1019.1
20260904213658 47 55 0.0 0.0 0.00 0.01 0.01 99 1019.3
20260904213154 46 260 0.0 0.0 0.00 0.01 0.01 99 1019.0
20260904212649 45 300 0.0 0.9 0.00 0.01 0.01 99 1018.4
20260904212144 45 301 0.0 0.0 0.00 0.01 0.01 99 1019.6
20260904211644 45 22 0.9 1.7 0.07 0.01 0.01 99 1019.6
20260904211139 45 308 0.0 0.0 0.07 0.01 0.01 99 1019.9
20260904210639 47 328 1.7 1.7 0.00 0.00 0.00 99 1019.6
20260904210135 46 304 0.0 0.0 0.00 0.00 0.00 99 1020.2
20260904205630 46 277 0.0 0.0 0.00 0.00 0.00 99 1019.6
20260904205127 44 259 0.0 0.0 0.00 0.00 0.00 99 1019.2
20260904204622 44 280 0.0 0.0 0.00 0.00 0.00 99 1019.1
20260904204119 43 259 0.0 0.0 0.00 0.00 0.00 99 1019.2
20260904203614 42 287 0.0 0.0 0.00 0.00 0.00 99 1019.0
20260904203111 42 264 0.0 0.0 0.00 0.00 0.00 99 1018.9
20260904202606 42 320 0.0 0.0 0.00 0.00 0.00 99 1018.8
20260904202103 42 292 0.0 0.0 0.00 0.00 0.00 99 1019.0
20260904201602 41 271 0.0 0.0 0.00 0.00 0.00 99 1018.9
20260904201057 41 275 0.0 0.0 0.00 0.00 0.00 99 1018.8
20260904200556 41 281 0.0 0.0 0.00 0.00 0.00 99 1018.7
20260904200052 41 270 0.0 0.0 0.00 0.00 0.00 99 1018.7
20260904195550 41 299 0.0 0.0 0.00 0.00 0.00 99 1018.8
20260904195049 41 305 0.0 0.0 0.00 0.00 0.00 99 1018.9
20260904194544 41 304 0.0 0.0 0.00 0.00 0.00 99 1019.0
20260904194039 42 298 0.0 0.0 0.00 0.00 0.00 99 1018.9
20260904193533 42 284 0.0 0.0 0.00 0.00 0.00 99 1019.1
20260904193030 42 266 0.0 0.0 0.00 0.00 0.00 99 1019.1
20260904192529 41 283 0.0 0.0 0.00 0.00 0.00 99 1019.0
20260904192026 41 263 0.0 0.9 0.00 0.00 0.00 99 1018.8
20260904191522 40 275 0.0 0.0 0.00 0.00 0.00 99 1019.0
20260904191019 40 296 0.0 0.0 0.00 0.00 0.00 99 1018.9
20260904190514 40 295 0.0 0.0 0.00 0.00 0.00 99 1019.0
20260904190010 40 284 0.0 0.0 0.00 0.00 0.00 99 1019.0
20260904185506 40 283 0.0 0.0 0.00 0.00 0.00 99 1018.9
20260904185001 40 280 0.0 0.0 0.00 0.00 0.00 99 1019.2
20260904184501 40 283 0.0 0.0 0.00 0.00 0.00 99 1019.1
20260904183955 40 273 0.0 0.0 0.00 0.00 0.00 99 1019.1
20260904183451 40 291 0.0 0.0 0.00 0.00 0.00 99 1019.0
20260904182946 40 288 0.0 0.0 0.00 0.00 0.00 99 1019.1
20260904182441 40 286 0.0 0.0 0.00 0.00 0.00 99 1019.1
20260904181935 40 286 0.0 0.0 0.00 0.00 0.00 99 1019.1
20260904181431 41 286 0.0 0.0 0.00 0.00 0.00 99 1019.1
20260904180926 41 284 0.0 0.0 0.00 0.00 0.00 99 1019.0
20260904180421 41 277 0.0 0.0 0.00 0.00 0.00 99 1019.2
20260904175920 41 264 0.0 0.0 0.00 0.00 0.00 99 1019.2
20260904175419 41 278 0.0 0.0 0.00 0.00 0.00 99 1019.2
20260904174914 41 287 0.0 0.0 0.00 0.00 0.00 98 1019.2
20260904174409 41 288 0.0 0.0 0.00 0.00 0.00 98 1019.2
20260904173906 41 292 0.0 0.0 0.00 0.00 0.00 98 1019.2
20260904173401 41 292 0.0 0.0 0.00 0.00 0.00 98 1019.3
20260904172856 41 292 0.0 0.0 0.00 0.00 0.00 98 1019.2
20260904172355 41 297 0.0 0.0 0.00 0.00 0.00 98 1019.5
20260904171851 41 294 0.0 0.0 0.00 0.00 0.00 98 1019.3
20260904171346 41 295 0.0 0.0 0.00 0.00 0.00 98 1019.3
20260904170842 41 286 0.0 0.0 0.00 0.00 0.00 98 1019.1
20260904170337 42 286 0.0 0.0 0.00 0.00 0.00 98 1019.2
20260904165833 42 286 0.0 0.0 0.00 0.00 0.00 98 1019.2
20260904165331 42 286 0.0 0.0 0.00 0.00 0.00 98 1019.0
20260904164826 42 286 0.0 0.0 0.00 0.00 0.00 98 1019.3
20260904164321 42 288 0.0 0.0 0.00 0.00 0.00 98 1019.4
20260904163817 42 288 0.0 0.0 0.00 0.00 0.00 98 1019.5
20260904163312 42 289 0.0 0.0 0.00 0.00 0.00 97 1019.6
20260904162811 42 267 0.0 0.0 0.00 0.00 0.00 97 1019.5
20260904162306 42 284 0.0 0.0 0.00 0.00 0.00 97 1019.7
20260904161802 42 284 0.0 0.0 0.00 0.00 0.00 97 1019.7
20260904161301 42 249 0.0 0.0 0.00 0.00 0.00 97 1019.9
20260904160757 43 264 0.0 0.0 0.00 0.00 0.00 97 1019.9
20260904160252 43 280 0.0 0.0 0.00 0.00 0.00 97 1020.2
20260904155747 42 262 0.0 0.0 0.00 0.00 0.00 97 1020.2
20260904155247 43 296 0.0 0.0 0.00 0.00 0.00 97 1020.3
20260904154745 43 284 0.0 0.0 0.00 0.00 0.00 97 1020.3
20260904154240 43 284 0.0 0.0 0.00 0.00 0.00 97 1020.4
20260904153736 43 261 0.0 0.0 0.00 0.00 0.00 97 1020.4
20260904153231 43 288 0.0 0.0 0.00 0.00 0.00 97 1020.5
20260904152727 43 286 0.0 0.0 0.00 0.00 0.00 97 1020.5
20260904152222 43 267 0.0 0.0 0.00 0.00 0.00 97 1020.7
20260904151717 43 285 0.0 0.0 0.00 0.00 0.00 96 1020.6
20260904151216 44 280 0.0 0.0 0.00 0.00 0.00 96 1020.7
20260904150712 44 277 0.0 0.0 0.00 0.00 0.00 96 1020.7
20260904150207 44 276 0.0 0.0 0.00 0.00 0.00 96 1020.6
20260904145705 44 284 0.0 0.0 0.00 0.00 0.00 96 1020.8
20260904145201 44 281 0.0 0.0 0.00 0.00 0.00 96 1020.8
20260904144656 44 281 0.0 0.0 0.00 0.00 0.00 96 1020.8
20260904144152 44 286 0.0 0.0 0.00 0.00 0.00 96 1020.9
20260904143647 44 282 0.0 0.0 0.00 0.00 0.00 96 1020.7
20260904143144 44 292 0.0 0.0 0.00 0.00 0.00 95 1020.8
20260904142640 44 290 0.0 0.0 0.00 0.00 0.00 95 1021.0
20260904142136 44 289 0.0 0.0 0.00 0.00 0.00 95 1020.9
20260904141630 44 289 0.0 0.0 0.00 0.00 0.00 95 1021.0
20260904141126 44 281 0.0 0.0 0.00 0.00 0.00 95 1020.9
20260904140621 44 285 0.0 0.0 0.00 0.00 0.00 95 1021.3
20260904140115 44 296 0.0 0.0 0.00 0.00 0.00 95 1021.0
20260904135615 45 296 0.0 0.0 0.00 0.00 0.00 94 1021.1
20260904135111 45 296 0.0 0.0 0.00 0.00 0.00 94 1021.4
20260904134606 45 294 0.0 0.0 0.00 0.00 0.00 94 1021.1
20260904134100 46 279 0.0 0.0 0.00 0.00 0.00 94 1021.4
20260904133555 46 288 0.0 0.0 0.00 0.00 0.00 94 1021.3
20260904133051 46 277 0.0 0.0 0.00 0.00 0.00 93 1021.4
20260904132550 45 296 0.0 0.0 0.00 0.00 0.00 93 1021.1
20260904132045 46 295 0.0 0.0 0.00 0.00 0.00 93 1021.2
20260904131545 46 295 0.0 0.0 0.00 0.00 0.00 92 1021.2
20260904131041 46 285 0.0 0.0 0.00 0.00 0.00 92 1021.2
20260904130540 46 278 0.0 0.0 0.00 0.00 0.00 92 1021.2
20260904130035 47 285 0.0 0.0 0.00 0.00 0.00 92 1021.3
20260904125532 47 279 0.0 0.0 0.00 0.00 0.00 92 1021.2
20260904125026 48 283 0.0 0.0 0.00 0.00 0.00 92 1020.9
20260904124522 48 258 0.0 0.0 0.00 0.00 0.00 93 1020.9
20260904124017 47 267 0.0 0.0 0.00 0.00 0.00 92 1021.1
20260904123516 47 266 0.0 0.0 0.00 0.00 0.00 91 1021.1
20260904123013 47 264 0.0 0.0 0.00 0.00 0.00 91 1021.2
20260904122507 47 271 0.0 0.0 0.00 0.00 0.00 90 1021.3
20260904122002 48 271 0.0 0.0 0.00 0.00 0.00 90 1021.2
20260904121458 48 281 0.0 0.0 0.00 0.00 0.00 90 1021.1
20260904120954 48 280 0.0 0.0 0.00 0.00 0.00 90 1021.3
20260904120449 49 281 0.0 0.0 0.00 0.00 0.00 90 1021.2
20260904115944 49 276 0.0 0.0 0.00 0.00 0.00 90 1021.5
20260904115440 49 251 0.0 0.9 0.00 0.00 0.00 90 1021.3
20260904114940 49 304 0.0 0.0 0.00 0.00 0.00 89 1021.2
20260904114440 50 272 0.0 0.0 0.00 0.00 0.00 88 1021.1
20260904113935 50 275 0.0 0.0 0.00 0.00 0.00 88 1021.3
20260904113434 50 247 0.0 0.9 0.00 0.00 0.00 88 1021.3
20260904112934 50 273 0.0 0.0 0.00 0.00 0.00 87 1021.3
20260904112430 50 272 0.0 0.0 0.00 0.00 0.00 87 1021.5
20260904111925 51 288 0.0 0.0 0.00 0.00 0.00 86 1021.5
20260904111421 51 285 0.0 0.0 0.00 0.00 0.00 86 1021.5
20260904110917 51 281 0.0 0.0 0.00 0.00 0.00 86 1021.8
20260904110415 51 286 0.0 0.0 0.00 0.00 0.00 85 1021.8
20260904105910 52 309 0.0 0.0 0.00 0.00 0.00 85 1021.6
20260904105406 52 287 0.0 0.0 0.00 0.00 0.00 84 1021.8
20260904104901 52 314 0.0 0.0 0.00 0.00 0.00 84 1021.8
20260904104355 53 305 0.0 0.0 0.00 0.00 0.00 84 1021.4
20260904103853 53 315 0.0 0.9 0.00 0.00 0.00 84 1021.6
20260904103352 53 327 0.9 0.9 0.00 0.00 0.00 84 1021.6
20260904102848 52 78 0.9 0.9 0.00 0.00 0.00 84 1021.8
20260904102343 53 297 0.0 0.0 0.00 0.00 0.00 82 1021.6
20260904101839 53 294 0.0 0.0 0.00 0.00 0.00 81 1021.5
20260904101336 54 289 0.0 0.0 0.00 0.00 0.00 80 1021.3
20260904100831 54 345 0.0 0.9 0.00 0.00 0.00 80 1021.9
20260904100327 55 310 0.0 0.0 0.00 0.00 0.00 79 1021.9